Somerville, NJ

9:16 AM EST on November 20, 2019 (GMT -0500)
Somerset

Weather History for KSMQ - September, 2019

Change the Weather History Date:

Tuesday, September 3, 2019

  Actual Average Record
Temperature  
Mean Temperature 72 °F -  
Max Temperature 84 °F 79 °F 99 °F (1953)
Min Temperature 60 °F 57 °F 41 °F (1967)
Cooling Degree Days 7    
Growing Degree Days 22 (Base 50)    
Moisture  
Dew Point 62 °F    
Average Humidity 80    
Maximum Humidity 100    
Minimum Humidity 41    
Precipitation  
Precipitation 0.00 in - - ()
Sea Level Pressure  
Sea Level Pressure 30.00 in    
Wind  
Wind Speed 2 mph (NW)    
Max Wind Speed 6 mph    
Max Gust Speed -    
Visibility 6 miles    
Events Fog    
Averages and records for this station are not official NWS values.
T = Trace of Precipitation, MM = Missing Value Source: NWS Daily Summary

Daily Weather History Graph

Daily Weather History Graph

Search for Another Location

Airport or City:

Astronomy

Sep. 03, 2019 Rise Set
Actual Time 6:27 AM EDT 7:27 PM EDT
Civil Twilight 5:59 AM EDT 7:55 PM EDT
Nautical Twilight 5:26 AM EDT 8:29 PM EDT
Astronomical Twilight 4:51 AM EDT 9:03 PM EDT
Moon 11:18 AM EDT (9/3) 10:21 PM EDT (9/3)
Length of Visible Light 13h 56m
Length of Day
13h 00m
Waxing Crescent, 24% of the Moon is Illuminated
Sep 3
Waxing Crescent
Sep 5
First Quarter
Sep 14
Full
Sep 21
Last Quarter
Sep 28
New

Hourly Weather History & Observations

Time (EDT) Temp. Heat Index Dew Point Humidity Pressure Visibility Wind Dir Wind Speed Gust Speed Precip Events Conditions
12:53 AM 69.1 °F - 66.9 °F 93% 29.99 in 2.0 mi Calm Calm - N/A   Clear
12:58 AM 68.0 °F - 66.9 °F 96% 29.99 in 0.8 mi Calm Calm - N/A   Clear
1:04 AM 66.9 °F - 66.0 °F 97% 29.99 in 0.2 mi Calm Calm - N/A Fog Fog
1:17 AM 68.0 °F - 66.9 °F 96% 29.99 in 1.0 mi Calm Calm - N/A   Mist
1:20 AM 68.0 °F - 66.0 °F 93% 29.99 in 2.0 mi Calm Calm - N/A   Partly Cloudy
1:29 AM 66.9 °F - 66.0 °F 97% 29.99 in 1.0 mi NW 3.5 mph - N/A   Mist
1:36 AM 68.0 °F - 66.0 °F 93% 29.98 in 0.5 mi Calm Calm - N/A Fog Fog
1:53 AM 66.9 °F - 64.9 °F 93% 29.99 in 1.0 mi Calm Calm - N/A   Mist
1:59 AM 66.0 °F - 64.9 °F 96% 29.98 in 2.0 mi NW 3.5 mph - N/A   Scattered Clouds
2:15 AM 66.0 °F - 64.9 °F 96% 29.99 in 5.0 mi Calm Calm - N/A   Partly Cloudy
2:31 AM 66.0 °F - 64.9 °F 96% 30.00 in 2.0 mi Calm Calm - N/A   Partly Cloudy
2:40 AM 66.0 °F - 64.0 °F 93% 29.99 in 7.0 mi NW 4.6 mph - N/A   Partly Cloudy
2:53 AM 64.9 °F - 64.0 °F 97% 29.99 in 8.0 mi Calm Calm - N/A   Partly Cloudy
3:53 AM 64.9 °F - 62.1 °F 90% 29.98 in 10.0 mi NNW 3.5 mph - N/A   Clear
4:53 AM 63.0 °F - 61.0 °F 93% 29.98 in 2.0 mi NW 4.6 mph - N/A   Clear
5:13 AM 63.0 °F - 61.0 °F 93% 29.98 in 6.0 mi NW 4.6 mph - N/A   Clear
5:53 AM 63.0 °F - 61.0 °F 93% 29.99 in 9.0 mi NW 3.5 mph - N/A   Clear
6:28 AM 61.0 °F - 60.1 °F 97% 30.01 in 2.5 mi NW 3.5 mph - N/A   Partly Cloudy
6:33 AM 61.0 °F - 60.1 °F 97% 30.01 in 1.0 mi NW 3.5 mph - N/A   Mist
6:42 AM 61.0 °F - 60.1 °F 97% 30.01 in 2.0 mi Calm Calm - N/A   Partly Cloudy
6:50 AM 60.8 °F - 60.8 °F 100% 30.02 in 4.0 mi NW 3.5 mph - N/A   Partly Cloudy
6:53 AM 61.0 °F - 60.1 °F 97% 30.02 in 4.0 mi NNW 3.5 mph - N/A   Partly Cloudy
7:53 AM 66.0 °F - 62.1 °F 87% 30.04 in 10.0 mi Calm Calm - N/A   Clear
8:53 AM 70.0 °F - 61.0 °F 73% 30.05 in 10.0 mi NNE 5.8 mph - N/A   Clear
9:53 AM 75.0 °F - 59.0 °F 57% 30.05 in 10.0 mi NNE 4.6 mph - N/A   Clear
10:53 AM 77.0 °F - 57.9 °F 52% 30.05 in 10.0 mi Variable 5.8 mph - N/A   Clear
11:53 AM 78.1 °F - 57.9 °F 50% 30.04 in 10.0 mi ESE 3.5 mph - N/A   Clear
12:53 PM 81.0 °F 81.1 °F 57.9 °F 45% 30.03 in 10.0 mi Calm Calm - N/A   Clear
1:53 PM 82.0 °F 81.7 °F 57.0 °F 42% 30.02 in 10.0 mi Calm Calm - N/A   Clear
2:53 PM 84.0 °F 83.5 °F 57.9 °F 41% 30.01 in 10.0 mi Calm Calm - N/A   Clear
3:53 PM 82.9 °F 82.8 °F 59.0 °F 44% 30.01 in 10.0 mi Calm Calm - N/A   Clear
4:53 PM 82.0 °F 82.1 °F 59.0 °F 45% 29.98 in 10.0 mi South 3.5 mph - N/A   Clear
5:53 PM 81.0 °F 81.7 °F 61.0 °F 50% 29.99 in 10.0 mi South 4.6 mph - N/A   Clear
6:53 PM 77.0 °F - 59.0 °F 54% 29.99 in 10.0 mi SSE 4.6 mph - N/A   Clear
7:53 PM 73.0 °F - 59.0 °F 61% 29.99 in 10.0 mi SSE 5.8 mph - N/A   Clear
8:53 PM 70.0 °F - 60.1 °F 71% 30.00 in 10.0 mi South 4.6 mph - N/A   Clear
9:53 PM 64.9 °F - 61.0 °F 87% 30.01 in 10.0 mi Calm Calm - N/A   Clear
10:53 PM 64.0 °F - 61.0 °F 90% 30.01 in 10.0 mi Calm Calm - N/A   Clear
11:53 PM 63.0 °F - 60.1 °F 90% 30.02 in 9.0 mi Calm Calm - N/A   Clear